Imperial, CA

7:02 AM PDT on August 29, 2016 (GMT -0700)
Imperial County

Weather History for KIPL - October, 2012

Change the Weather History Date:

Saturday, October 6, 2012

  Actual Average Record
Temperature  
Mean Temperature 81 °F -  
Max Temperature 98 °F 94 °F 108 °F (1996)
Min Temperature 66 °F 65 °F 52 °F (1998)
Cooling Degree Days 16    
Growing Degree Days 31 (Base 50)    
Moisture  
Dew Point 43 °F    
Average Humidity 29    
Maximum Humidity 45    
Minimum Humidity 12    
Precipitation  
Precipitation 0.00 in - - ()
Sea Level Pressure  
Sea Level Pressure 29.79 in    
Wind  
Wind Speed 5 mph (West)    
Max Wind Speed 13 mph    
Max Gust Speed 17 mph    
Visibility 10 miles    
Events      
Averages and records for this station are not official NWS values.
T = Trace of Precipitation, MM = Missing Value Source: NWS Daily Summary

Daily Weather History Graph

Daily Weather History Graph

Search for Another Location

Airport or City:

Trip Planner

Search our weather history database for the weather conditions in past years. The results will help you decide how hot, cold, wet, or windy it might be!

Date:

Astronomy

Oct. 06, 2012 Rise Set
Actual Time 6:40 AM PDT 6:19 PM PDT
Civil Twilight 6:15 AM PDT 6:44 PM PDT
Nautical Twilight 5:47 AM PDT 7:12 PM PDT
Astronomical Twilight 5:18 AM PDT 7:41 PM PDT
Moon 10:53 PM PDT (10/6) 12:23 PM PDT (10/6)
Length of Visible Light 12h 28m
Length of Day
11h 39m
Waning Gibbous, 64% of the Moon is Illuminated
Oct 6
Waning Gibbous
Oct 8
Last Quarter
Oct 15
New
Oct 21
First Quarter
Oct 29
Full

Hourly Weather History & Observations

Time (PDT) Temp. Dew Point Humidity Pressure Visibility Wind Dir Wind Speed Gust Speed Precip Events Conditions
12:53 AM 75.0 °F 42.1 °F 31% 29.83 in 10.0 mi West 8.1 mph - N/A   Clear
1:53 AM 68.0 °F 45.0 °F 43% 29.83 in 10.0 mi West 6.9 mph - N/A   Clear
2:53 AM 66.9 °F 45.0 °F 45% 29.82 in 10.0 mi West 4.6 mph - N/A   Clear
3:53 AM 66.9 °F 44.1 °F 44% 29.81 in 10.0 mi West 4.6 mph - N/A   Clear
4:53 AM 69.1 °F 42.1 °F 38% 29.81 in 10.0 mi Calm Calm - N/A   Clear
5:53 AM 66.9 °F 41.0 °F 39% 29.82 in 10.0 mi Calm Calm - N/A   Clear
6:53 AM 68.0 °F 42.8 °F 40% 29.83 in 10.0 mi Calm Calm - N/A   Clear
7:53 AM 72.0 °F 42.1 °F 34% 29.84 in 10.0 mi Calm Calm - N/A   Clear
8:53 AM 78.1 °F 43.0 °F 29% 29.86 in 10.0 mi SW 3.5 mph - N/A   Clear
9:53 AM 82.9 °F 51.1 °F 33% 29.86 in 10.0 mi Calm Calm - N/A   Clear
10:53 AM 88.0 °F 44.1 °F 22% 29.85 in 10.0 mi Calm Calm - N/A   Clear
11:53 AM 90.0 °F 42.1 °F 19% 29.83 in 10.0 mi Calm Calm - N/A   Clear
12:53 PM 93.0 °F 37.9 °F 15% 29.80 in 10.0 mi Variable 3.5 mph - N/A   Clear
1:53 PM 95.0 °F 37.9 °F 14% 29.77 in 10.0 mi Variable 4.6 mph - N/A   Clear
2:53 PM 96.1 °F 37.0 °F 13% 29.75 in 10.0 mi East 5.8 mph - N/A   Clear
3:53 PM 96.1 °F 37.0 °F 13% 29.73 in 10.0 mi Calm Calm - N/A   Clear
4:53 PM 96.1 °F 36.0 °F 12% 29.73 in 10.0 mi SE 5.8 mph - N/A   Clear
5:53 PM 95.0 °F 36.0 °F 13% 29.72 in 10.0 mi Calm Calm - N/A   Clear
6:53 PM 89.1 °F 45.0 °F 22% 29.74 in 9.0 mi West 12.7 mph - N/A   Clear
7:53 PM 84.9 °F 51.1 °F 31% 29.75 in 10.0 mi WNW 8.1 mph - N/A   Clear
8:53 PM 86.0 °F 46.0 °F 25% 29.76 in 10.0 mi WSW 9.2 mph 17.3 mph N/A   Clear
9:53 PM 79.0 °F 50.0 °F 36% 29.77 in 10.0 mi West 8.1 mph - N/A   Clear
10:53 PM 78.1 °F 50.0 °F 37% 29.78 in 10.0 mi West 6.9 mph - N/A   Clear
11:53 PM 75.9 °F 48.9 °F 38% 29.77 in 10.0 mi West 9.2 mph - N/A   Clear